SCOUT A R/B, 3137

Orbit data source: Space-Track

SCOUT A R/B, 3137 is space debris in LEO originally from a launch on Sat, 02 Mar 1968 UTC launched from the Air Force Western Test Range (AFWTR). Debris objects in space refer to the collection of defunct objects orbiting the Earth. Examples of debris include non-operational satellites, rocket bodies, and fragments generated from explosions, collisions, or faulty payload assembly.

Loading next visibility...
Identifier
3137, 1968-012B
Orbit
LEO
Country
Flag of USUS
Related business
Manufacturer
ABL
Mission
Spacecraft
Bus & Motor
ALTAIR, Unknown motor
Mass
33 kg wet, 33 kg dry
Launch date (UTC)
1968-03-02 (58 years ago)
Launch vehicle
Unknown
Launch site
Air Force Western Test Range (AFWTR)
Object type
Payload
Rocket body
Debris
Shape & HBR
Cyl, 0.8 m
Radar Cross Section
0.687 m², Medium (>0.1 m² and < 1m²)

Expand to show TLE details & history
Last TLE update: 11 hours ago

TLE from 11 hours ago
0 SCOUT A R/B
1 03137U 68012B   25245.79340642  .00000256  00000-0  37916-3 0  9996
2 03137  90.0219 272.7573 0075062 180.4227 179.6873 13.50271300830008
Epoch: 2025-09-02T19:02Z
TLE epoch observation values (Epoch: 2025-09-02T19:02:30.314Z)
Latitude
-0.00005°
Longitude
4.95145°
Altitude
1,130.142 km
Speed
7.26 km/s
True Right ascension
18h 11m 01s
True Declination
0° 00' 00"
Sunlit
Object was in daylight at epoch
Visualization orbit readout
Latitude
Unknown
Longitude
Unknown
Altitude
Unknown
Speed
Unknown
Apparent Right ascension
Unknown
Apparent Declination
Unknown
Sunlit
N/A
Visualization observer readout
Local Sidereal Time
21:50:47
Azimuth
Unknown
Elevation
Unknown
Doppler factor
Unknown
Orbital elements
Apogee altitude
1,124.204 km
Perigee altitude
1,012.415 km
Semi-major axis
7,446.447 km
Eccentricity
0.00751
Inclination
90.0219°
RAAN
272.7573°
Arg. of periapsis
180.4227°
True anomaly
179.69195°
Mean anomaly
179.6873°
Eccentric anomaly
179.68963°
Mean motion
3.37769 °/min
Orbital period
106.58 mins
BSTAR
0.00037916
Loading maneuver chart data...
Computing Atmospheric mass density...
Loading historical data...
Loading historical data...
Loading historical data...
Loading historical data...
Loading historical data...
Loading historical data...
Loading historical data...

Documentation

Showing up to 5 results
|